Meteo pe oră la Dabek

Astăzi, 10 Aprilie, Sâmbătă

Timp Temperatura Precipitaţii Vânt Presiune Umiditate
00:00 +6°C° 0 mm 5 m/s 741 mmHg 59%
01:00 +5°C° 0 mm 4 m/s 741 mmHg 60%
02:00 +5°C° 0 mm 4 m/s 741 mmHg 62%
03:00 +5°C° 0 mm 4 m/s 741 mmHg 64%
04:00 +5°C° 0 mm 4 m/s 740 mmHg 66%
05:00 +5°C° 0 mm 4 m/s 741 mmHg 66%
06:00 +6°C° 0 mm 4 m/s 741 mmHg 66%
07:00 +6°C° 0 mm 4 m/s 741 mmHg 65%
08:00 +8°C° 0 mm 5 m/s 741 mmHg 59%
09:00 +10°C° 0 mm 5 m/s 741 mmHg 53%
10:00 +13°C° 0 mm 6 m/s 741 mmHg 46%
11:00 +14°C° 0 mm 6 m/s 741 mmHg 44%
12:00 +15°C° 0 mm 7 m/s 741 mmHg 43%
13:00 +16°C° 0 mm 7 m/s 741 mmHg 41%
14:00 +15°C° 0 mm 6 m/s 741 mmHg 46%
15:00 +15°C° 0 mm 6 m/s 741 mmHg 51%
16:00 +14°C° 0 mm 5 m/s 741 mmHg 56%
17:00 +13°C° 0 mm 4 m/s 742 mmHg 58%
18:00 +12°C° 0 mm 3 m/s 742 mmHg 61%
19:00 +12°C° 0 mm 2 m/s 742 mmHg 64%
20:00 +12°C° 0 mm 1 m/s 742 mmHg 67%
21:00 +11°C° 0 mm 1 m/s 743 mmHg 70%
22:00 +11°C° 0 mm 1 m/s 743 mmHg 73%
23:00 +10°C° 0 mm 1 m/s 743 mmHg 74%

Mâine, 11 Aprilie, Duminică

Timp Temperatura Precipitaţii Vânt Presiune Umiditate
00:00 +9°C° 0 mm 2 m/s 743 mmHg 75%
01:00 +9°C° 0 mm 2 m/s 743 mmHg 76%
02:00 +8°C° 0 mm 2 m/s 743 mmHg 77%
03:00 +8°C° 0 mm 2 m/s 742 mmHg 77%
04:00 +8°C° 0 mm 3 m/s 742 mmHg 78%
05:00 +8°C° 0 mm 3 m/s 742 mmHg 75%
06:00 +9°C° 0 mm 3 m/s 742 mmHg 71%
07:00 +10°C° 0 mm 3 m/s 742 mmHg 68%
08:00 +11°C° 0 mm 3 m/s 742 mmHg 60%
09:00 +13°C° 0 mm 4 m/s 742 mmHg 51%
10:00 +15°C° 0 mm 4 m/s 742 mmHg 43%
11:00 +17°C° 0 mm 4 m/s 742 mmHg 42%
12:00 +16°C° 0 mm 5 m/s 742 mmHg 40%
13:00 +17°C° 0 mm 5 m/s 742 mmHg 39%
14:00 +16°C° 0 mm 5 m/s 742 mmHg 43%
15:00 +15°C° 0 mm 5 m/s 742 mmHg 47%
16:00 +14°C° 0 mm 5 m/s 742 mmHg 52%
17:00 +13°C° 0.3 mm 4 m/s 742 mmHg 60%
18:00 +12°C° 0.3 mm 3 m/s 742 mmHg 69%
19:00 +11°C° 0.3 mm 3 m/s 742 mmHg 78%
20:00 +11°C° 0.2 mm 3 m/s 742 mmHg 79%
21:00 +10°C° 0.2 mm 4 m/s 742 mmHg 81%
22:00 +10°C° 0.2 mm 4 m/s 742 mmHg 82%
23:00 +10°C° 0 mm 4 m/s 741 mmHg 81%

Poimâine, 12 Aprilie, Luni

Timp Temperatura Precipitaţii Vânt Presiune Umiditate
00:00 +10°C° 0 mm 4 m/s 741 mmHg 80%
01:00 +10°C° 0 mm 4 m/s 741 mmHg 79%
02:00 +10°C° 0 mm 3 m/s 741 mmHg 80%
03:00 +9°C° 0 mm 3 m/s 741 mmHg 81%
04:00 +9°C° 0 mm 2 m/s 740 mmHg 82%
05:00 +10°C° 0 mm 2 m/s 740 mmHg 80%
06:00 +10°C° 0 mm 2 m/s 741 mmHg 79%
07:00 +10°C° 0 mm 2 m/s 741 mmHg 77%
08:00 +12°C° 0 mm 2 m/s 741 mmHg 72%
09:00 +13°C° 0 mm 2 m/s 741 mmHg 66%
10:00 +14°C° 0 mm 2 m/s 741 mmHg 61%
11:00 +15°C° 0 mm 2 m/s 741 mmHg 59%
12:00 +15°C° 0 mm 2 m/s 741 mmHg 57%
13:00 +16°C° 0 mm 2 m/s 741 mmHg 55%
14:00 +15°C° 0 mm 2 m/s 741 mmHg 58%
15:00 +14°C° 0 mm 3 m/s 741 mmHg 60%
16:00 +14°C° 0 mm 3 m/s 741 mmHg 62%
17:00 +12°C° 0 mm 3 m/s 741 mmHg 70%
18:00 +11°C° 0 mm 4 m/s 741 mmHg 78%
19:00 +10°C° 0 mm 4 m/s 742 mmHg 86%
20:00 +8°C° 0.1 mm 4 m/s 742 mmHg 87%
21:00 +7°C° 0.1 mm 4 m/s 742 mmHg 87%
22:00 +6°C° 0.1 mm 4 m/s 742 mmHg 88%
23:00 +6°C° 1.1 mm 5 m/s 742 mmHg 89%

13 Aprilie, Marţi

Timp Temperatura Precipitaţii Vânt Presiune Umiditate
00:00 +5°C° 1.1 mm 5 m/s 742 mmHg 90%
01:00 +3°C° 1.1 mm 6 m/s 742 mmHg 92%
02:00 +2°C° 1.4 mm 6 m/s 743 mmHg 93%
03:00 +1°C° 1.4 mm 6 m/s 743 mmHg 95%
04:00 -1°C° 1.4 mm 6 m/s 743 mmHg 96%
05:00 -1°C° 1.2 mm 6 m/s 744 mmHg 96%
06:00 -2°C° 1.2 mm 6 m/s 744 mmHg 97%
07:00 -2°C° 1.2 mm 6 m/s 745 mmHg 97%
08:00 -2°C° 0.5 mm 6 m/s 745 mmHg 97%
09:00 -2°C° 0.5 mm 6 m/s 745 mmHg 97%
10:00 -2°C° 0.5 mm 6 m/s 746 mmHg 98%
11:00 -1°C° 0.1 mm 6 m/s 746 mmHg 94%
12:00 -1°C° 0.1 mm 6 m/s 746 mmHg 90%
13:00 +1°C° 0.1 mm 6 m/s 746 mmHg 86%
14:00 +1°C° 0.1 mm 6 m/s 746 mmHg 86%
15:00 +1°C° 0.1 mm 5 m/s 745 mmHg 86%
16:00 +2°C° 0.1 mm 5 m/s 745 mmHg 86%
17:00 +1°C° 0.1 mm 4 m/s 745 mmHg 88%
18:00 +2°C° 0.1 mm 3 m/s 745 mmHg 90%
19:00 +2°C° 0.1 mm 3 m/s 745 mmHg 91%
20:00 +2°C° 0.4 mm 3 m/s 745 mmHg 93%
21:00 +1°C° 0.4 mm 3 m/s 745 mmHg 96%
22:00 +1°C° 0.4 mm 3 m/s 745 mmHg 98%
23:00 +1°C° 0.7 mm 3 m/s 745 mmHg 98%

14 Aprilie, Miercuri

Timp Temperatura Precipitaţii Vânt Presiune Umiditate
00:00 +1°C° 0.7 mm 3 m/s 745 mmHg 98%
01:00 0°C° 0.7 mm 4 m/s 745 mmHg 98%
02:00 0°C° 0.5 mm 4 m/s 745 mmHg 97%
03:00 0°C° 0.5 mm 4 m/s 745 mmHg 97%
04:00 -1°C° 0.5 mm 4 m/s 745 mmHg 96%
05:00 -1°C° 0.2 mm 4 m/s 745 mmHg 95%
06:00 -1°C° 0.2 mm 5 m/s 745 mmHg 94%
07:00 -1°C° 0.2 mm 5 m/s 745 mmHg 93%
08:00 0°C° 0.1 mm 5 m/s 745 mmHg 88%
09:00 +1°C° 0.1 mm 6 m/s 745 mmHg 83%
10:00 +2°C° 0.1 mm 7 m/s 744 mmHg 78%
11:00 +3°C° 0.1 mm 7 m/s 744 mmHg 72%
12:00 +3°C° 0.1 mm 7 m/s 744 mmHg 67%
13:00 +4°C° 0.1 mm 7 m/s 744 mmHg 61%
14:00 +4°C° 0.1 mm 7 m/s 743 mmHg 63%
15:00 +4°C° 0.1 mm 6 m/s 743 mmHg 64%
16:00 +3°C° 0.1 mm 6 m/s 743 mmHg 65%
17:00 +3°C° 0 mm 6 m/s 743 mmHg 67%
18:00 +2°C° 0 mm 5 m/s 743 mmHg 68%
19:00 +2°C° 0 mm 5 m/s 743 mmHg 69%
20:00 +1°C° 0 mm 5 m/s 743 mmHg 73%
21:00 +1°C° 0 mm 5 m/s 743 mmHg 76%
22:00 0°C° 0 mm 5 m/s 744 mmHg 79%
23:00 -1°C° 0.2 mm 6 m/s 743 mmHg 82%

15 Aprilie, Joi

Timp Temperatura Precipitaţii Vânt Presiune Umiditate
00:00 -2°C° 0.2 mm 6 m/s 743 mmHg 85%
01:00 -2°C° 0.2 mm 6 m/s 743 mmHg 88%
02:00 -3°C° 0.6 mm 7 m/s 743 mmHg 90%
03:00 -3°C° 0.6 mm 7 m/s 743 mmHg 92%
04:00 -3°C° 0.6 mm 7 m/s 743 mmHg 95%
05:00 -3°C° 1 mm 7 m/s 743 mmHg 95%
06:00 -3°C° 1 mm 7 m/s 743 mmHg 96%
07:00 -3°C° 1 mm 7 m/s 743 mmHg 96%
08:00 -3°C° 1.5 mm 7 m/s 743 mmHg 97%
09:00 -3°C° 1.5 mm 7 m/s 743 mmHg 98%
10:00 -2°C° 1.5 mm 7 m/s 743 mmHg 99%
11:00 -2°C° 1.1 mm 7 m/s 743 mmHg 99%
12:00 -2°C° 1.1 mm 6 m/s 743 mmHg 99%
13:00 -2°C° 1.1 mm 6 m/s 743 mmHg 99%
14:00 -2°C° 0.5 mm 6 m/s 743 mmHg 99%
15:00 -1°C° 0.5 mm 5 m/s 743 mmHg 99%
16:00 -1°C° 0.5 mm 5 m/s 743 mmHg 99%
17:00 -1°C° 0.5 mm 5 m/s 743 mmHg 99%
18:00 -1°C° 0.5 mm 5 m/s 743 mmHg 99%
19:00 -1°C° 0.5 mm 4 m/s 743 mmHg 99%
20:00 -2°C° 0.4 mm 4 m/s 743 mmHg 99%
21:00 -2°C° 0.4 mm 4 m/s 744 mmHg 99%
22:00 -2°C° 0.4 mm 4 m/s 744 mmHg 99%
23:00 -2°C° 0.5 mm 4 m/s 744 mmHg 99%
Arată mai mult

Formular de consimțământ

Meteoprog și furnizorii noștri de servicii pot stoca și accesa date personale, precum cookies, identificatori de dispozitiv sau alte tehnologii similare pe dispozitivul dumneavoastră și procesa astfel de date pentru a personaliza conținutul și reclamele, dar și pentru a oferi caracteristici de social media și pentru a analiza traficul.

  • Stocarea și/sau accesarea informațiilor pe dispozitivul dumneavoastră

    Cookies, identificatori de dispozitiv sau alte informații pot fi stocate sau accesate pe dispozitiv în scopurile indicate mai sus.

  • Reclame și conținut personalizat, evaluarea reclamelor și a conținutului, informații despre audiențe și dezvoltarea produselor

    Reclamele și conținutul pot fi personalizate pe baza unui profil. Pot fi adăugate date suplimentare pentru a personaliza mai bine reclamele și conținutul. Performanța reclamelor și conținutului poate fi măsurată. Pot fi obținute informații despre utilizatorii care au văzut reclamele și conținutul. Aceste date pot fi utilizate pentru a dezvolta sau îmbunătăți experiența utilizatorilor, sistemele și software-ul.

Dând clic pe ‘Sunt de acord’, permiteți utilizarea cookie-urilor menționate, a identificatorilor de dispozitiv, balizelor web sau altor tehnologii similare. Setările pot fi modificate din browser-ul dispozitivului dumneavoastră.

În anumite scopuri, interesele legitime pot prima asupra consimțământului. Puteți citi mai multe informații în acest sens în Politica privind Confidențialitatea Datelor și Cookie.